Tracking 35280 objects as of 7-Sep-2026
HD Live streaming from Space Station
objects crossing your sky now

SL-7 DEB


SL-7 DEB is no longer on orbit


NORAD ID: 3638
Int'l Code: 1968-117L
Launch date: December 19, 1968
Source: Commonwealth of Independent States (former USSR) (CIS)
Launch site: PLESETSK MISSILE AND SPACE COMPLEX (PKMTR)
Decay date: 1969-02-13

Note: This is SATELLITE DEBRIS
Your satellite tracking list
Your tracking list is empty




NASA's NSSDC Master Catalog

Two Line Element Set (TLE):
1 03638U 68117  L 69039.84150281  .02566812 +00000-0 +00000-0 0  9999
2 03638 071.0208 317.3492 0024928 337.5004 022.4995 15.83226192007384
Source of the keplerian elements: AFSPC